Tracking 34352 objects as of 8-Jun-2026
HD Live streaming from Space Station
objects crossing your sky now

MOLNIYA 3-47

Track MOLNIYA 3-47 now!
MOLNIYA 3-47 is classified as:


NORAD ID: 23642
Int'l Code: 1995-042A
Perigee: 2,354.6 km
Apogee: 37,785.1 km
Inclination: 64.9 °
Period: 713.1 minutes
Semi major axis: 26440 km
RCS: 13.479 m2 (large)
Launch date: August 9, 1995
Source: Commonwealth of Independent States (former USSR) (CIS)
Launch site: PLESETSK MISSILE AND SPACE COMPLEX (PKMTR)
Your satellite tracking list
Your tracking list is empty




NASA's NSSDC Master Catalog

Two Line Element Set (TLE):
1 23642U 95042A   26158.11849021  .00000204  00000-0  00000-0 0  9991
2 23642  64.8731 269.7264 6699943 269.4999  19.7331  2.01925003226318
Source of the keplerian elements: AFSPC